Change the Weather History Date:

Saturday, November 17, 2012

  Actual Average Record
Temperature  
Mean Temperature 42 °F -  
Max Temperature 46 °F 48 °F - ()
Min Temperature 37 °F 39 °F - ()
Degree Days  
Heating Degree Days 24    
Moisture  
Dew Point 38 °F    
Average Humidity 87    
Maximum Humidity 100    
Minimum Humidity 71    
Precipitation  
Precipitation 0.00 in 0.09 in - ()
Sea Level Pressure  
Sea Level Pressure 29.75 in    
Wind  
Wind Speed 10 mph ()    
Max Wind Speed 18 mph    
Max Gust Speed -    
Visibility 5.7 miles    
Events Rain    
T = Trace of Precipitation, MM = Missing Value Source: Averaged Metar Reports

Daily Weather History Graph

Daily Weather History Graph

Search for Another Location

Airport or City:

Trip Planner

Search our weather history database for the weather conditions in past years. The results will help you decide how hot, cold, wet, or windy it might be!

Date:

Astronomy

Nov. 17, 2012 Rise Set
Actual Time 7:54 AM GMT 4:25 PM GMT
Civil Twilight 7:15 AM GMT 5:04 PM GMT
Nautical Twilight 6:32 AM GMT 5:47 PM GMT
Astronomical Twilight 5:51 AM GMT 6:28 PM GMT
Moon 11:31 AM GMT (11/17) 8:18 PM GMT (11/17)
Length of Visible Light 9h 48m
Length of Day
8h 30m
Waxing Crescent, 18% of the Moon is Illuminated
Nov 17
Waxing Crescent
Nov 20
First Quarter
Nov 28
Full
Dec 6
Last Quarter
Dec 13
New

Hourly Weather History & Observations

Time (GMT) Temp. Windchill Dew Point Humidity Pressure Visibility Wind Dir Wind Speed Gust Speed Precip Events Conditions
12:00 AM 43 °F - 42 °F 94% 29.76 in 5 mi West 6.7 mph - - Rain Light Rain
12:00 AM 42.8 °F 38.0 °F 42.8 °F 100% 29.74 in 5.0 mi West 8.1 mph - N/A Rain Light Rain
12:30 AM 42.8 °F 38.0 °F 42.8 °F 100% 29.74 in 5.0 mi West 8.1 mph - N/A   Light Drizzle
1:00 AM 42.8 °F 38.0 °F 41.0 °F 93% 29.74 in 6.2 mi West 8.1 mph - N/A   Mostly Cloudy
1:30 AM 42.8 °F 37.0 °F 42.8 °F 100% 29.71 in 5.0 mi West 10.4 mph - N/A   Mostly Cloudy
2:00 AM 42.8 °F 38.0 °F 42.8 °F 100% 29.71 in 5.0 mi West 8.1 mph - N/A   Mostly Cloudy
2:30 AM 42.8 °F 38.0 °F 42.8 °F 100% 29.71 in 5.6 mi West 8.1 mph - N/A   Light Drizzle
3:00 AM 42.8 °F 37.5 °F 42.8 °F 100% 29.71 in 6.2 mi West 9.2 mph - N/A   Mostly Cloudy
3:30 AM 42.8 °F 37.5 °F 42.8 °F 100% 29.71 in 6.2 mi West 9.2 mph - N/A   Mostly Cloudy
4:00 AM 42.8 °F 37.5 °F 41.0 °F 93% 29.71 in 6.2 mi West 9.2 mph - N/A   Mostly Cloudy
4:30 AM 41.0 °F 35.2 °F 39.2 °F 93% 29.71 in 6.2 mi West 9.2 mph - N/A   Scattered Clouds
5:00 AM 41.0 °F 35.8 °F 39.2 °F 93% 29.71 in 6.2 mi West 8.1 mph - N/A   Scattered Clouds
5:30 AM 41.0 °F 35.8 °F 39.2 °F 93% 29.71 in 6.2 mi West 8.1 mph - N/A   Scattered Clouds
6:00 AM 40 °F - 39 °F 95% 29.75 in 4 mi West 11.2 mph - -   Mist
6:00 AM 39.2 °F 32.5 °F 39.2 °F 100% 29.74 in 3.7 mi West 10.4 mph - N/A   Mostly Cloudy
6:30 AM 39.2 °F 32.0 °F 37.4 °F 93% 29.74 in 4.3 mi WSW 11.5 mph - N/A   Mostly Cloudy
7:00 AM 37.4 °F 30.8 °F 37.4 °F 100% 29.74 in 2.8 mi West 9.2 mph - N/A   Mostly Cloudy
7:30 AM 39.2 °F 33.0 °F 37.4 °F 93% 29.74 in 1.6 mi WSW 9.2 mph - N/A   Mostly Cloudy
8:00 AM 37.4 °F 30.3 °F 37.4 °F 100% 29.74 in 2.2 mi WSW 10.4 mph - N/A   Mostly Cloudy
8:30 AM 37.4 °F 29.3 °F 37.4 °F 100% 29.74 in 5.0 mi West 12.7 mph - N/A   Partly Cloudy
9:00 AM 39.2 °F 31.2 °F 37.4 °F 93% 29.74 in 6.2 mi WSW 13.8 mph - N/A   Partly Cloudy
9:30 AM 39.2 °F 30.8 °F 37.4 °F 93% 29.74 in 6.2 mi West 15.0 mph - N/A   Partly Cloudy
10:00 AM 42.8 °F 35.8 °F 37.4 °F 81% 29.74 in 6.2 mi WSW 13.8 mph - N/A   Partly Cloudy
10:30 AM 42.8 °F 35.4 °F 37.4 °F 81% 29.74 in 6.2 mi WSW 15.0 mph - N/A   Partly Cloudy
11:00 AM 42.8 °F 35.4 °F 39.2 °F 87% 29.74 in 6.2 mi WSW 15.0 mph - N/A   Partly Cloudy
11:30 AM 42.8 °F 35.8 °F 37.4 °F 81% 29.74 in 6.2 mi WSW 13.8 mph - N/A   Partly Cloudy
12:00 PM 45 °F - 39 °F 72% 29.76 in 28 mi WSW 15.7 mph - -   Scattered Clouds
12:00 PM 44.6 °F 37.8 °F 39.2 °F 81% 29.74 in 6.2 mi WSW 15.0 mph - N/A   Partly Cloudy
12:30 PM 44.6 °F 37.8 °F 37.4 °F 76% 29.74 in 6.2 mi WSW 15.0 mph - N/A   Partly Cloudy
1:00 PM 46.4 °F 39.8 °F 39.2 °F 76% 29.74 in 6.2 mi WSW 16.1 mph - N/A   Scattered Clouds
1:30 PM 46.4 °F 39.2 °F 37.4 °F 71% 29.74 in 6.2 mi WSW 18.4 mph - N/A   Scattered Clouds
2:00 PM 44.6 °F 37.2 °F 35.6 °F 71% 29.74 in 6.2 mi WSW 17.3 mph - N/A   Scattered Clouds
2:30 PM 44.6 °F 36.9 °F 35.6 °F 71% 29.74 in 6.2 mi West 18.4 mph - N/A   Partly Cloudy
3:00 PM 44.6 °F 37.2 °F 35.6 °F 71% 29.74 in 6.2 mi West 17.3 mph - N/A   Partly Cloudy
3:30 PM 44.6 °F 37.4 °F 35.6 °F 71% 29.74 in 6.2 mi WSW 16.1 mph - N/A   Partly Cloudy
4:00 PM 41.0 °F 33.1 °F 37.4 °F 87% 29.77 in 6.2 mi West 15.0 mph - N/A Rain Light Rain Showers
4:30 PM 41.0 °F 35.2 °F 35.6 °F 81% 29.77 in 6.2 mi West 9.2 mph - N/A   Partly Cloudy
5:00 PM 41.0 °F 33.9 °F 35.6 °F 81% 29.77 in 6.2 mi SW 12.7 mph - N/A   Partly Cloudy
5:30 PM 39.2 °F 32.0 °F 33.8 °F 81% 29.77 in 6.2 mi WSW 11.5 mph - N/A   Partly Cloudy
6:00 PM 39 °F - 34 °F 77% 29.80 in 31 mi WSW 13.4 mph - -   Partly Cloudy
6:00 PM 39.2 °F 31.6 °F 33.8 °F 81% 29.77 in 6.2 mi WSW 12.7 mph - N/A   Partly Cloudy
6:30 PM 39.2 °F 32.0 °F 35.6 °F 87% 29.77 in 6.2 mi SW 11.5 mph - N/A   Partly Cloudy
7:00 PM 39.2 °F 31.2 °F 33.8 °F 81% 29.80 in 6.2 mi WSW 13.8 mph - N/A   Partly Cloudy
7:30 PM 39.2 °F 32.0 °F 33.8 °F 81% 29.80 in 6.2 mi WSW 11.5 mph - N/A   Partly Cloudy
8:00 PM 37.4 °F 29.3 °F 33.8 °F 87% 29.80 in 6.2 mi WSW 12.7 mph - N/A   Partly Cloudy
8:30 PM 37.4 °F 28.9 °F 33.8 °F 87% 29.80 in 6.2 mi WSW 13.8 mph - N/A   Partly Cloudy
9:00 PM 37.4 °F 28.9 °F 33.8 °F 87% 29.80 in 6.2 mi WSW 13.8 mph - N/A   Partly Cloudy
9:30 PM 37.4 °F 28.5 °F 33.8 °F 87% 29.80 in 6.2 mi WSW 15.0 mph - N/A   Partly Cloudy
10:00 PM 37.4 °F 28.9 °F 33.8 °F 87% 29.80 in 6.2 mi WSW 13.8 mph - N/A   Partly Cloudy
10:30 PM 37.4 °F 30.3 °F 33.8 °F 87% 29.83 in 6.2 mi WSW 10.4 mph - N/A   Partly Cloudy
11:00 PM 37.4 °F 28.9 °F 33.8 °F 87% 29.83 in 6.2 mi WSW 13.8 mph - N/A   Partly Cloudy
11:30 PM 37.4 °F 28.5 °F 33.8 °F 87% 29.83 in 6.2 mi WSW 15.0 mph - N/A   Partly Cloudy